Regional Weather Roundup
Issued by NWS

Home | Current Version | Previous Version | Text Only | Print | Product List | Glossary On
Versions: 1 2 3 4 5 6 7 8 9 10 11 12 13 14 15 16 17 18 19 20 21 22 23 24 25 26 27 28 29 30 31 32 33 34 35 36 37 38 39 40 41 42 43 44 45 46 47 48 49 50
000
ASUS44 KMEG 181900
RWRTN
TENNESSEE HOURLY STATE WEATHER ROUNDUP
NATIONAL WEATHER SERVICE MEMPHIS TN
200 PM CDT FRI APR 18 2014

TNZ002-004-019-021-049-052-054-088>092-182000-
WEST TENNESSEE

CITY           SKY/WX    TMP DP  RH WIND       PRES   REMARKS
MEMPHIS INTL   CLOUDY    69  50  50 NE8       30.21F
NWS MEMPHIS      N/A     71 N/A N/A MISG        N/A
JACKSON        PTSUNNY   71  49  45 VRB6      30.23F
DYERSBURG      CLOUDY    70  46  43 CALM      30.25F
UNION CITY     PTSUNNY   68  46  45 E5        30.23F
LEXINGTON      CLOUDY    68  46  45 VRB5      30.22F
$$

TNZ008-025-027-028-033-062-065-066-182000-
NORTH MIDDLE TENNESSEE

CITY           SKY/WX    TMP DP  RH WIND       PRES   REMARKS
NASHVILLE      CLOUDY    68  43  40 CALM      30.26F
CLARKSVILLE    CLOUDY    67  50  54 N6        30.25F
COOKEVILLE     SUNNY     66  45  45 CALM      30.25F
CROSSVILLE     CLOUDY    62  37  39 NE8       30.27F
$$

TNZ061-075-076-078-094-096-097-182000-
SOUTH MIDDLE TENNESSEE

CITY           SKY/WX    TMP DP  RH WIND       PRES   REMARKS
TULLAHOMA      SUNNY     64  39  39 NE3       30.25F
WINCHESTER     SUNNY     64  41  42 SE5       30.25F
MCMINNVILLE    PTSUNNY   64  43  45 NE8       30.25F
COLUMBIA       MOSUNNY   66  52  59 N3        30.22F
$$

TNZ017-018-042-046-047-182000-
NORTHEAST TENNESSEE

CITY           SKY/WX    TMP DP  RH WIND       PRES   REMARKS
TRI CITIES     CLOUDY    60  30  32 E3        30.30F
ELIZABETHTON   CLEAR     57  32  38 CALM      30.28F
$$

TNZ012-013-036-069-073-074-182000-
CENTRAL EAST TENNESSEE

CITY           SKY/WX    TMP DP  RH WIND       PRES   REMARKS
KNOXVILLE      CLOUDY    61  38  42 NE7       30.26F
OAK RIDGE      CLOUDY    64  36  35 CALM      30.28F
$$

TNZ083-085-099-182000-
SOUTHEAST TENNESSEE

CITY           SKY/WX    TMP DP  RH WIND       PRES   REMARKS
CHATTANOOGA    CLOUDY    62  39  42 N10       30.25F
$$

SKY/WX REPORTED AS FAIR MEANS FEW OR NO CLOUDS BELOW
12 THOUSAND FEET.




USA.gov is the U.S. government's official web portal to all federal, state and local government web resources and services.